AD5L Weather Reports


time (UTC)temp
C
wind
direction
speed
KPH
gust
KPH
rain 1hr
cm
rain 24hr
cm
rain mn
cm
humidity
%
barometer
mb
20260509211335 32 96 1.6 8.0 0.00 0.30 0.30 54 1009.0
20260509210325 31 115 3.2 6.4 0.00 0.30 0.30 56 1009.2
20260509205335 31 60 3.2 12.9 0.00 0.30 0.30 56 1009.2
20260509204342 31 68 0.0 9.7 0.00 0.30 0.30 56 1009.6
20260509203329 32 49 1.6 8.0 0.00 0.30 0.30 57 1009.7
20260509202340 32 266 0.0 6.4 0.00 0.30 0.30 51 1009.9
20260509201331 32 285 1.6 6.4 0.00 0.30 0.30 54 1010.2
20260509200342 31 95 3.2 6.4 0.00 0.30 0.30 55 1010.3
20260509195332 30 116 3.2 8.0 0.00 0.30 0.30 58 1010.3
20260509194323 30 70 4.8 8.0 0.00 0.30 0.30 64 1010.3
20260509193330 29 341 3.2 11.3 0.00 0.30 0.30 71 1010.2
20260509192338 29 18 4.8 9.7 0.00 0.30 0.30 75 1010.4
20260509191327 28 26 6.4 14.5 0.00 0.30 0.30 74 1010.5
20260509190339 28 75 3.2 11.3 0.00 0.30 0.30 71 1010.7
20260509185349 27 16 1.6 6.4 0.00 0.30 0.30 79 1011.1
20260509184331 27 47 3.2 4.8 0.00 0.30 0.30 83 1011.0
20260509183340 26 330 3.2 4.8 0.00 0.30 0.30 88 1011.2
20260509182331 25 56 0.0 3.2 0.00 0.30 0.30 98 1011.4
20260509181343 25 56 1.6 3.2 0.00 0.30 0.30 98 1011.4
20260509180332 24 56 0.0 3.2 0.00 0.30 0.30 99 1011.7
20260509175343 24 56 1.6 4.8 0.13 0.30 0.30 99 1011.7
20260509174324 24 18 3.2 8.0 0.30 0.30 0.30 99 1011.6
20260509173344 24 12 1.6 4.8 0.30 0.30 0.30 99 1011.9
20260509172326 23 88 0.0 3.2 0.30 0.30 0.30 99 1011.7
20260509171337 23 88 1.6 4.8 0.30 0.30 0.30 98 1012.1
20260509170328 24 129 0.0 3.2 0.30 0.30 0.30 97 1012.3
20260509165338 25 135 0.0 9.7 0.18 0.18 0.18 95 1012.1
20260509164327 28 160 3.2 11.3 0.00 0.00 0.00 77 1012.1
20260509163337 29 149 6.4 16.1 0.00 0.00 0.00 74 1011.8
20260509162341 31 129 8.0 12.9 0.00 0.00 0.00 72 1011.9
20260509161329 31 118 4.8 11.3 0.00 0.00 0.00 67 1011.8
20260509160339 30 144 1.6 8.0 0.00 0.00 0.00 68 1011.7
20260509155330 30 140 3.2 9.7 0.00 0.00 0.00 69 1011.7
20260509154334 29 147 3.2 8.0 0.00 0.00 0.00 73 1011.7
20260509153326 28 203 1.6 6.4 0.00 0.00 0.00 74 1011.5
20260509152338 28 20 1.6 8.0 0.00 0.00 0.00 74 1011.3
20260509151328 28 134 3.2 16.1 0.00 0.00 0.00 77 1011.3
20260509150338 28 169 6.4 16.1 0.00 0.00 0.00 79 1011.1
20260509145329 27 160 4.8 19.3 0.00 0.00 0.00 80 1011.0
20260509144338 27 233 8.0 16.1 0.00 0.00 0.00 81 1010.8
20260509143328 27 196 9.7 20.9 0.00 0.00 0.00 81 1010.5
20260509142339 26 245 11.3 19.3 0.00 0.00 0.00 83 1010.4
20260509141349 26 196 6.4 12.9 0.00 0.00 0.00 85 1010.5
20260509140338 26 214 4.8 11.3 0.00 0.00 0.00 87 1010.6
20260509135348 25 211 4.8 11.3 0.00 0.00 0.00 88 1010.6
20260509134340 25 221 3.2 11.3 0.00 0.00 0.00 90 1010.7
20260509133350 25 171 1.6 14.5 0.00 0.00 0.00 91 1010.4
20260509132329 24 149 4.8 9.7 0.00 0.00 0.00 92 1010.0
20260509131349 23 231 4.8 9.7 0.00 0.00 0.00 93 1010.5
20260509130327 23 256 1.6 4.8 0.00 0.00 0.00 95 1010.4
20260509125338 22 328 1.6 4.8 0.00 0.00 0.00 96 1010.3
20260509124329 22 250 3.2 8.0 0.00 0.00 0.00 97 1010.5
20260509123339 21 221 3.2 8.0 0.00 0.00 0.00 98 1010.7
20260509122329 21 250 3.2 6.4 0.00 0.00 0.00 98 1010.9
20260509121338 21 144 0.0 3.2 0.00 0.00 0.00 98 1010.9
20260509120327 21 99 0.0 1.6 0.00 0.00 0.00 98 1011.1
20260509115339 21 257 0.0 1.6 0.00 0.00 0.00 98 1011.3
20260509114325 21 257 3.2 6.4 0.00 0.00 0.00 98 1011.4
20260509113331 21 327 0.0 1.6 0.00 0.00 0.00 98 1011.9
20260509112342 21 327 0.0 1.6 0.00 0.00 0.00 98 1011.8
20260509111331 21 327 0.0 1.6 0.00 0.00 0.00 98 1011.9
20260509110339 21 327 0.0 1.6 0.00 0.00 0.00 98 1012.0
20260509105330 21 328 0.0 1.6 0.00 0.00 0.00 98 1012.3
20260509104340 21 327 3.2 6.4 0.00 0.00 0.00 98 1012.4
20260509103330 21 332 1.6 6.4 0.00 0.00 0.00 98 1012.6
20260509102321 21 356 4.8 8.0 0.00 0.00 0.00 98 1012.4
20260509101331 21 347 0.0 1.6 0.00 0.00 0.00 98 1012.3
20260509100341 21 347 1.6 6.4 0.00 0.00 0.00 98 1012.1
20260509095332 21 340 1.6 8.0 0.00 0.00 0.00 98 1011.9
20260509094343 21 35 4.8 9.7 0.00 0.00 0.00 98 1011.6
20260509093325 21 334 4.8 8.0 0.00 0.00 0.00 98 1011.6
20260509092341 21 151 0.0 1.6 0.00 0.00 0.00 98 1011.2
20260509091351 21 151 0.0 0.0 0.00 0.00 0.00 97 1010.7
20260509090329 21 151 0.0 0.0 0.00 0.00 0.00 97 1010.7
20260509085350 21 151 0.0 0.0 0.00 0.00 0.00 97 1010.8
20260509084332 22 151 0.0 0.0 0.00 0.00 0.00 97 1010.9
20260509083322 22 139 0.0 0.0 0.00 0.00 0.00 96 1011.2
20260509082333 22 139 0.0 0.0 0.00 0.00 0.00 96 1011.2
20260509081325 22 139 0.0 0.0 0.00 0.00 0.00 96 1011.3
20260509080336 22 139 0.0 0.0 0.00 0.00 0.00 96 1011.1
20260509075327 22 139 0.0 0.0 0.00 0.00 0.00 96 1011.3
20260509074334 22 139 0.0 0.0 0.00 0.00 0.00 96 1011.7
20260509073325 22 139 0.0 1.6 0.00 0.00 0.00 95 1011.7
20260509072332 22 139 0.0 4.8 0.00 0.00 0.00 95 1011.8
20260509071322 22 190 0.0 4.8 0.00 0.00 0.00 95 1011.8
20260509070332 22 164 0.0 3.2 0.00 0.00 0.00 95 1011.6
20260509065324 22 217 0.0 1.6 0.00 0.00 0.00 95 1011.2
20260509064334 22 142 1.6 4.8 0.00 0.00 0.00 95 1011.6
20260509063323 22 145 0.0 4.8 0.00 0.00 0.00 95 1011.6
20260509062334 22 153 0.0 4.8 0.00 0.00 0.00 95 1011.7
20260509061342 22 127 0.0 3.2 0.00 0.00 0.00 94 1011.6
20260509060327 22 127 0.0 1.6 0.00 0.00 0.00 94 1011.5
20260509055338 22 127 0.0 3.2 0.00 0.00 0.00 95 1011.7
20260509054328 22 128 0.0 3.2 0.00 0.00 0.00 95 1011.1
20260509053338 22 78 1.6 4.8 0.00 0.00 0.00 94 1010.6
20260509052349 22 101 1.6 4.8 0.00 0.00 0.00 95 1010.2
20260509051339 22 91 0.0 4.8 0.00 0.00 0.00 95 1010.3
20260509050350 22 109 1.6 3.2 0.00 0.00 0.00 94 1010.1
20260509045332 22 128 0.0 6.4 0.00 0.00 0.00 94 1010.0
20260509044323 22 129 1.6 4.8 0.00 0.00 0.00 94 1010.2
20260509043334 22 131 0.0 1.6 0.00 0.00 0.00 94 1010.5
20260509042325 22 131 0.0 1.6 0.00 0.00 0.00 94 1010.7
20260509041335 22 131 0.0 1.6 0.00 0.00 0.00 94 1010.7
20260509040326 22 131 0.0 1.6 0.00 0.00 0.00 94 1010.6
20260509035336 22 131 0.0 1.6 0.00 0.00 0.00 94 1010.6
20260509034327 22 131 0.0 1.6 0.00 0.00 0.00 94 1010.7
20260509033337 22 131 0.0 1.6 0.00 0.00 0.00 94 1010.5
20260509032325 22 131 0.0 1.6 0.00 0.00 0.00 94 1010.5
20260509031331 22 131 0.0 1.6 0.00 0.00 0.00 94 1010.4
20260509030339 22 131 0.0 3.2 0.00 0.00 0.00 93 1010.1
20260509025328 22 143 0.0 3.2 0.00 0.00 0.00 93 1010.0
20260509024336 22 129 0.0 4.8 0.00 0.00 0.00 93 1009.8
20260509023326 22 141 1.6 3.2 0.00 0.00 0.00 93 1009.9
20260509022337 22 141 0.0 3.2 0.00 0.00 0.00 92 1010.0
20260509021328 22 141 1.6 4.8 0.00 0.00 0.00 92 1009.9
20260509020339 22 127 0.0 3.2 0.00 0.00 0.00 91 1009.7
20260509015329 23 94 0.0 8.0 0.00 0.00 0.00 91 1009.5
20260509014339 23 122 1.6 8.0 0.00 0.00 0.00 90 1009.4
20260509013346 23 101 0.0 6.4 0.00 0.00 0.00 89 1009.4
20260509012336 23 89 1.6 6.4 0.00 0.00 0.00 89 1009.4
20260509011348 23 75 3.2 11.3 0.00 0.00 0.00 88 1009.2
20260509010329 23 133 4.8 12.9 0.00 0.00 0.00 88 1009.1
20260509005349 23 113 6.4 11.3 0.00 0.00 0.00 88 1009.3
20260509004329 23 84 4.8 9.7 0.00 0.00 0.00 88 1009.4
20260509003350 23 71 4.8 9.7 0.00 0.00 0.00 87 1009.3
20260509002331 23 84 4.8 8.0 0.00 0.00 0.00 87 1009.1
20260509001322 24 84 3.2 9.7 0.00 0.00 0.00 87 1009.3
20260509000333 24 103 6.4 9.7 0.00 0.00 0.00 86 1009.5
20260508235324 24 84 6.4 11.3 0.00 0.00 0.00 86 1009.4
20260508234335 24 94 3.2 11.3 0.00 0.00 0.00 86 1009.4
20260508233326 24 46 4.8 9.7 0.00 0.00 0.00 85 1009.6
20260508232337 24 77 4.8 11.3 0.00 0.00 0.00 85 1009.3
20260508231325 25 73 4.8 12.9 0.00 0.00 0.00 84 1009.2
20260508230332 25 108 6.4 12.9 0.00 0.00 0.00 84 1009.5
20260508225323 25 79 4.8 11.3 0.00 0.00 0.00 83 1009.3
20260508224335 25 78 8.0 12.9 0.00 0.00 0.00 83 1009.4
20260508223326 25 64 3.2 11.3 0.00 0.00 0.00 84 1009.5
20260508222336 25 72 8.0 12.9 0.00 0.00 0.00 82 1009.6
20260508221347 25 63 9.7 14.5 0.00 0.00 0.00 82 1009.4
20260508220337 25 84 4.8 14.5 0.00 0.00 0.00 82 1009.7
20260508215348 25 96 6.4 12.9 0.00 0.00 0.00 82 1009.7
20260508214330 25 86 6.4 14.5 0.00 0.00 0.00 80 1009.8
20260508213351 25 56 8.0 14.5 0.00 0.00 0.00 80 1009.9
20260508212332 25 39 4.8 9.7 0.00 0.00 0.00 79 1010.0